Regional Weather Roundup
Issued by NWS

Home | Current Version | Previous Version | Text Only | Print | Product List | Glossary Off
Versions: 1 2 3 4 5 6 7 8 9 10 11 12 13 14 15 16 17 18 19 20 21 22 23 24 25 26 27 28 29 30 31 32 33 34 35 36 37 38 39 40 41 42 43 44 45 46 47 48 49 50

867
ASUS45 KBOU 252110
RWRCO

WEATHER ROUNDUP FOR COLORADO
NATIONAL WEATHER SERVICE DENVER/BOULDER CO
300 PM MDT SUN SEP 25 2016

NOTE: "FAIR" INDICATES FEW OR NO CLOUDS BELOW 12000 FEET WITH NO
SIGNIFICANT WEATHER AND/OR OBSTRUCTIONS TO VISIBILITY.

COZ001>005-013-030-031-252200-
...NORTHWEST COLORADO...

CITY           SKY/WX    TMP DP  RH WIND       PRES   REMARKS
CRAIG          FAIR      61  26  26 N3        30.48S
HAYDEN         FAIR      57  30  35 W6        30.48S
MEEKER         FAIR      61  34  36 CALM      30.46F
MOUNT WERNER   NOT AVBL
STEAMBOAT SPGS FAIR      57  31  37 W5        30.48S
WALDEN           N/A     55  23  28 S6        30.50F
$$

COZ006>008-011-252200-
...WEST CENTRAL VALLEYS...

CITY           SKY/WX    TMP DP  RH WIND       PRES   REMARKS
GRAND JUNCTION FAIR      67  37  33 VRB5      30.37F
MONTROSE       FAIR      63  38  39 VRB5      30.42F
EAGLE          SUNNY     64  27  24 CALM      30.44F
RIFLE          FAIR      66  32  28 N3        30.40F
DELTA          FAIR      69  33  26 CALM      30.39F
NUCLA          FAIR      68  30  24 W3        30.42F
$$

COZ017>023-064>068-252200-
...SOUTHWEST COLORADO...

CITY           SKY/WX    TMP DP  RH WIND       PRES   REMARKS
DURANGO        FAIR      68  26  20 SW8       30.36F
CORTEZ         FAIR      70  33  25 S5        30.34F
PAGOSA SPRINGS FAIR      66  23  19 S8        30.41F
TELLURIDE      FAIR      58  33  39 W10       30.52F
WOLF CREEK PAS FAIR      45  28  53 SW13G21   30.66S
$$

COZ009-010-012-014-032>034-037-058>063-252200-
...CENTRAL COLORADO...

CITY           SKY/WX    TMP DP  RH WIND       PRES   REMARKS
ASPEN          FAIR      61  26  26 VRB7      30.45F
BUENA VISTA    FAIR      63  25  23 CALM      30.42F
COPPER MTN     FAIR      48  19  32 NW13G18   30.64F
BERTHOUD PASS  FAIR      34  21  60 NW15G24   30.66S WCI  24
COTTONWOOD PAS FAIR      59  23  25 E6G20     30.53S
GUNNISON       FAIR      61  30  31 VRB7      30.44F
KREMMLING      FAIR      61  21  21 CALM      30.47S
LEADVILLE      FAIR      57  19  22 N8G16     30.51S
MONARCH PASS   FAIR      45  27  49 SW14G23   30.74S
SALIDA         FAIR      65  29  25 SE6       30.47F
SUNLIGHT       FAIR      45  36  70 NW5       30.65S
WILKERSON PASS FAIR      46  23  39 CALM      30.63S
$$

COZ069>075-252200-
...SAN LUIS VALLEY/SANGRE DE CRISTO MOUNTAINS...

CITY           SKY/WX    TMP DP  RH WIND       PRES   REMARKS
ALAMOSA        FAIR      64  27  24 VRB6      30.41F
LA VETA PASS   FAIR      50  30  46 MISG      30.56S
SAGUACHE       NOT AVBL
$$

COZ035-036-038>040-252200-
...NORTHERN COLORADO FRONT RANGE...

CITY           SKY/WX    TMP DP  RH WIND       PRES   REMARKS
DENVER INTL AP FAIR      66  30  26 VRB7      30.38F
DMNS CITY PARK NOT AVBL
AURORA         SUNNY     65  30  26 NE5       30.38F
FRONT RANGE AP SUNNY     66  30  26 CALM      30.39F
ERIE MUNI ARPT FAIR      67  29  24 SE5       30.36F
BOULDER MUN AP FAIR      68  32  26 E3        30.36F
CENTENNIAL     FAIR      65  29  25 N6        30.38F
BROOMFIELD     SUNNY     66  30  26 E5        30.38F
FORT COLLINS   FAIR      66  34  30 CALM      30.35F
LONGMONT       FAIR      70  32  25 E3        30.38S
$$

COZ041-046-047-076>085-087-088-252200-
...PIKES PEAK/PALMER DIVIDE AND SOUTHERN FOOTHILLS...

CITY           SKY/WX    TMP DP  RH WIND       PRES   REMARKS
COLO. SPRINGS  FAIR      63  30  28 S9        30.41F
A. F. ACADEMY  FAIR      63  30  29 S13       30.41F
SCHRIEVER AFB  NOT AVBL
ELLICOTT       NOT AVBL
FALCON         FAIR      63  30  28 SW9       30.44F
FORT CARSON    FAIR      65  30  27 SE8       30.38F
LIMON          FAIR      65  28  24 MISG      30.39F
MONUMENT HILL  FAIR      59  30  33 E8        30.45S
TRINIDAD       FAIR      64  29  26 NE7       30.40F
$$

COZ042>045-048>051-090-091-252200-
...NORTHEAST COLORADO...

CITY           SKY/WX    TMP DP  RH WIND       PRES   REMARKS
GREELEY ARPT   FAIR      66  32  28 CALM      30.36F
AKRON          FAIR      66  30  26 NW17G23   30.36F
BURLINGTON     FAIR      69  31  24 N17       30.34F
WRAY           PTSUNNY   73  30  20 N20G31    30.33
STERLING       FAIR      70  34  26 NW13G18   30.34S
HOLYOKE        FAIR      73  34  23 N17G28    30.34S
FORT MORGAN    FAIR      70  27  19 NW15G23   30.36F
$$

COZ086-089-092>099-252200-
...SOUTHEAST COLORADO...

CITY           SKY/WX    TMP DP  RH WIND       PRES   REMARKS
PUEBLO         FAIR      69  31  24 E7        30.35F
LA JUNTA       FAIR      73  31  21 N8        30.34F
LAMAR          FAIR      73  31  21 N9        30.31F
SPRINGFIELD    NOT AVBL
$$




USA.gov is the U.S. government's official web portal to all federal, state and local government web resources and services.